Location: Asheville, NC
(35.6000°N, 82.5500°W)
Time: 07:31:34
(UTC-04:00)

AO-7 - Pass Details

Date: 11 January 2018
Orbit: 1440 x 1459 km, 101.7° (Epoch: 19 June)

Event Time Altitude Azimuth Distance (km) Brightness Sun altitude
Rises 03:57:01 0° 18° (NNE) 4,569 ? -44.8°
Reaches altitude 10° 03:59:51 10° 21° (NNE) 3,587 ? -44.2°
Enters shadow 04:04:15 36° 30° (NNE) 2,171 ? -43.3°
